Location: Wavehorne
(51.0500°N, 0.8333°E)
Time: 18:13:59
(UTC+00:00)

ATLAS 5 CENTAUR R/B - Pass Details

Date: 20 June 2021
Orbit: 510 x 1148 km, 63.4° (Epoch: 28 July)

Event Time Altitude Azimuth Distance (km) Brightness Sun altitude
Exits shadow 02:29:23 11° 222° (SW) 1,736 3.2 -8.4°
Maximum altitude 02:33:13 88° 136° (SE) 590 1.5 -8.1°
Drops below altitude 10° 02:37:50 10° 45° (NE) 2,068 5.9 -7.7°
Sets 02:40:20 0° 45° (NE) 3,086 7.4 -7.4°
